FW4518 Weather Reports


time (UTC)temp
F
wind
direction
speed
knots
gust
knots
rain 1hr
in
rain 24hr
in
rain mn
in
humidity
%
barometer
mb
20260509090627 42 0.0 0.0 0.00 0.00 0.00 88 1023.3
20260509085626 44 0.0 0.0 0.00 0.00 0.00 85 1023.3
20260509084626 44 0.0 0.0 0.00 0.00 0.00 84 1023.3
20260509083626 44 0.0 0.0 0.00 0.00 0.00 86 1023.3
20260509082646 44 0.0 0.0 0.00 0.00 0.00 85 1023.4
20260509081627 45 0.0 0.0 0.00 0.00 0.00 82 1023.2
20260509080629 46 0.0 0.0 0.00 0.00 0.00 81 1023.2
20260509075627 46 0.0 0.0 0.00 0.00 0.00 81 1023.1
20260509074626 47 0.0 0.0 0.00 0.00 0.00 79 1023.1
20260509073626 48 0.0 0.0 0.00 0.00 0.00 77 1023.0
20260509072626 50 0.0 0.9 0.00 0.00 0.00 74 1022.9
20260509071646 49 239 0.9 4.3 0.00 0.00 0.00 75 1022.8
20260509070647 50 0.0 0.0 0.00 0.00 0.00 75 1022.8
20260509065627 51 0.0 0.0 0.00 0.00 0.00 71 1022.6
20260509064626 52 343 0.9 2.6 0.00 0.00 0.00 69 1022.5
20260509063626 51 0.0 0.9 0.00 0.00 0.00 70 1022.6
20260509062647 51 0.0 0.0 0.00 0.00 0.00 72 1022.6
20260509061626 53 0.0 0.9 0.00 0.00 0.00 67 1022.5
20260509060626 54 176 0.0 1.7 0.00 0.00 0.00 65 1022.4
20260509055626 54 12 0.9 1.7 0.00 0.00 0.00 64 1022.4
20260509054647 53 0.0 0.0 0.00 0.00 0.00 67 1022.4
20260509053626 55 0.0 0.0 0.00 0.00 0.00 64 1022.3
20260509052627 55 0.0 0.0 0.00 0.00 0.00 63 1022.2
20260509051646 57 0.0 0.0 0.00 0.00 0.00 62 1022.3
20260509050706 58 21 1.7 2.6 0.00 0.00 0.00 61 1022.2
20260509045627 59 11 2.6 4.3 0.00 0.00 0.00 60 1022.1
20260509044626 59 342 1.7 6.1 0.00 0.00 0.00 60 1022.0
20260509043626 59 246 0.9 2.6 0.00 0.00 0.00 60 1021.9
20260509042626 60 250 2.6 7.0 0.00 0.00 0.00 59 1021.8
20260509041627 60 356 2.6 4.3 0.00 0.00 0.00 57 1021.6
20260509040627 60 29 3.5 7.8 0.00 0.00 0.00 57 1021.6
20260509035626 61 347 2.6 7.0 0.00 0.00 0.00 57 1021.5
20260509034627 61 321 2.6 8.7 0.00 0.00 0.00 56 1021.3
20260509033627 62 124 2.6 7.0 0.00 0.00 0.00 55 1021.2
20260509032646 62 311 3.5 7.8 0.00 0.00 0.00 54 1021.2
20260509031627 62 277 2.6 7.8 0.00 0.00 0.00 54 1021.1
20260509030626 63 342 3.5 7.0 0.00 0.00 0.00 52 1020.9
20260509025627 64 79 4.3 9.6 0.00 0.00 0.00 51 1020.7
20260509024626 64 285 3.5 7.0 0.00 0.00 0.00 50 1020.6
20260509023646 65 216 3.5 9.6 0.00 0.00 0.00 48 1020.4
20260509022626 66 194 4.3 8.7 0.00 0.00 0.00 46 1020.3
20260509021627 66 200 4.3 9.6 0.00 0.00 0.00 46 1020.3
20260509020626 67 43 4.3 8.7 0.00 0.00 0.00 44 1020.1
20260509015626 67 32 4.3 7.8 0.00 0.00 0.00 44 1020.0
20260509014628 68 137 5.2 9.6 0.00 0.00 0.00 44 1019.9
20260509013626 69 238 5.2 10.4 0.00 0.00 0.00 43 1019.9
20260509012626 69 280 4.3 12.2 0.00 0.00 0.00 42 1019.8
20260509011627 70 23 4.3 12.2 0.00 0.00 0.00 41 1019.6
20260509010626 70 357 3.5 7.0 0.00 0.00 0.00 40 1019.5
20260509005627 72 252 3.5 10.4 0.00 0.00 0.00 40 1019.6
20260509004627 71 357 4.3 9.6 0.00 0.00 0.00 40 1019.7
20260509003627 72 289 3.5 13.0 0.00 0.00 0.00 39 1019.6
20260509002627 72 23 4.3 9.6 0.00 0.00 0.00 38 1019.5
20260509001628 72 329 4.3 10.4 0.00 0.00 0.00 38 1019.4
20260509000627 72 63 7.0 10.4 0.00 0.00 0.00 38 1019.3
20260508235647 72 104 5.2 9.6 0.00 0.00 0.00 37 1019.3
20260508234647 73 269 4.3 8.7 0.00 0.00 0.00 36 1019.2
20260508233627 75 71 3.5 9.6 0.00 0.00 0.00 36 1019.2
20260508232627 74 204 4.3 9.6 0.00 0.00 0.00 37 1019.2
20260508231627 73 176 6.1 14.8 0.00 0.00 0.00 37 1019.3
20260508230627 73 150 6.1 11.3 0.00 0.00 0.00 37 1019.4
20260508225627 73 197 6.1 11.3 0.00 0.00 0.00 39 1019.3
20260508224627 73 180 6.1 11.3 0.00 0.00 0.00 37 1019.3
20260508223628 74 123 5.2 9.6 0.00 0.00 0.00 37 1019.4
20260508222627 73 233 4.3 10.4 0.00 0.00 0.00 37 1019.4
20260508221647 74 231 4.3 9.6 0.00 0.00 0.00 36 1019.3
20260508220627 74 122 6.1 10.4 0.00 0.00 0.00 37 1019.3
20260508215627 73 61 4.3 10.4 0.00 0.00 0.00 37 1019.3
20260508214627 73 237 3.5 10.4 0.00 0.00 0.00 37 1019.3
20260508213627 72 271 6.1 13.9 0.00 0.00 0.00 36 1019.4
20260508212627 73 329 5.2 12.2 0.00 0.00 0.00 36 1019.4
20260508211627 74 32 5.2 12.2 0.00 0.00 0.00 35 1019.4
20260508210627 73 333 4.3 13.0 0.00 0.00 0.00 34 1019.3
20260508205648 73 205 6.1 11.3 0.00 0.00 0.00 35 1019.3
20260508204707 73 217 6.1 12.2 0.00 0.00 0.00 34 1019.3
20260508203627 73 196 4.3 13.9 0.00 0.00 0.00 34 1019.3
20260508202627 73 149 5.2 12.2 0.00 0.00 0.00 33 1019.3
20260508201628 73 199 6.1 13.0 0.00 0.00 0.00 33 1019.4
20260508200627 73 168 5.2 10.4 0.00 0.00 0.00 32 1019.3
20260508195628 72 146 6.1 13.0 0.00 0.00 0.00 31 1019.3
20260508194647 73 280 3.5 9.6 0.00 0.00 0.00 31 1019.3
20260508193627 72 218 3.5 9.6 0.00 0.00 0.00 30 1019.4
20260508192648 71 321 4.3 7.8 0.00 0.00 0.00 31 1019.4
20260508191628 71 113 4.3 9.6 0.00 0.00 0.00 32 1019.4
20260508190627 70 326 4.3 8.7 0.00 0.00 0.00 31 1019.4
20260508185627 70 198 3.5 10.4 0.00 0.00 0.00 31 1019.5
20260508184628 69 15 4.3 9.6 0.00 0.00 0.00 32 1019.4
20260508183648 68 232 1.7 4.3 0.00 0.00 0.00 35 1019.7
20260508182647 65 252 2.6 5.2 0.00 0.00 0.00 37 1019.8
20260508181648 64 281 4.3 6.1 0.00 0.00 0.00 37 1019.8
20260508180628 65 86 3.5 7.8 0.00 0.00 0.00 39 1019.7
20260508175648 65 285 1.7 5.2 0.00 0.00 0.00 40 1019.4
20260508174627 65 40 2.6 6.1 0.00 0.00 0.00 38 1019.3
20260508173627 65 0 2.6 7.0 0.00 0.00 0.00 38 1019.4
20260508172629 65 97 2.6 5.2 0.00 0.00 0.00 38 1019.6
20260508171628 66 265 1.7 5.2 0.00 0.00 0.00 43 1019.5
20260508170627 64 14 3.5 6.1 0.00 0.00 0.00 44 1019.5
20260508165628 64 30 5.2 8.7 0.00 0.00 0.00 45 1019.5
20260508164627 64 44 2.6 7.0 0.00 0.00 0.00 46 1019.6
20260508163628 65 350 1.7 4.3 0.00 0.00 0.00 48 1019.7
20260508162629 63 218 2.6 5.2 0.00 0.00 0.00 50 1019.8
20260508161628 62 93 2.6 6.1 0.00 0.00 0.00 51 1019.8
20260508160628 61 207 2.6 5.2 0.00 0.00 0.00 53 1019.6
20260508155648 61 177 2.6 5.2 0.00 0.00 0.00 53 1019.6
20260508154628 60 257 0.9 4.3 0.00 0.00 0.00 53 1019.6
20260508153648 59 217 0.9 2.6 0.00 0.00 0.00 54 1019.5
20260508152627 59 195 2.6 4.3 0.00 0.00 0.00 53 1019.4
20260508151648 57 110 1.7 3.5 0.00 0.00 0.00 53 1019.4
20260508150627 55 202 1.7 4.3 0.00 0.00 0.00 56 1019.4
20260508145628 53 94 3.5 5.2 0.00 0.00 0.00 61 1019.4
20260508144628 52 133 3.5 6.1 0.00 0.00 0.00 62 1019.4
20260508143630 51 204 1.7 3.5 0.00 0.00 0.00 65 1019.2
20260508142628 48 139 1.7 3.5 0.00 0.00 0.00 68 1019.2
20260508141628 45 253 0.9 2.6 0.00 0.00 0.00 74 1019.4
20260508140708 44 0.0 0.9 0.00 0.00 0.00 77 1019.5
20260508135648 43 223 0.9 2.6 0.00 0.00 0.00 77 1019.5
20260508134647 41 159 0.9 3.5 0.00 0.00 0.00 78 1019.4
20260508133708 40 211 0.0 0.9 0.00 0.00 0.00 81 1019.4
20260508132629 40 186 0.0 1.7 0.00 0.00 0.00 81 1019.4
20260508131628 37 196 0.0 2.6 0.00 0.00 0.00 86 1019.4
20260508130627 38 195 1.7 2.6 0.00 0.00 0.00 83 1019.3
20260508125628 38 0.0 0.0 0.00 0.00 0.00 83 1019.2
20260508124628 37 0.0 0.0 0.00 0.00 0.00 88 1019.2
20260508123708 39 218 0.0 1.7 0.00 0.00 0.00 83 1019.0
20260508122628 40 178 0.9 1.7 0.00 0.00 0.00 81 1018.8
20260508121628 39 197 0.9 1.7 0.00 0.00 0.00 83 1018.9
20260508120628 38 159 0.9 2.6 0.00 0.00 0.00 85 1018.9
20260508115629 39 166 0.9 2.6 0.00 0.00 0.00 82 1018.8
20260508114628 39 8 0.9 1.7 0.00 0.00 0.00 80 1018.9
20260508113628 39 296 0.0 1.7 0.00 0.00 0.00 81 1018.9
20260508112628 38 183 0.0 1.7 0.00 0.00 0.00 82 1018.8
20260508111628 39 0.0 0.0 0.00 0.00 0.00 83 1018.7
20260508110628 40 233 0.0 1.7 0.00 0.00 0.00 81 1018.7
20260508105628 41 37 0.9 1.7 0.00 0.00 0.00 81 1018.6
20260508104628 41 222 0.9 1.7 0.00 0.00 0.00 80 1018.6
20260508103628 42 164 0.9 1.7 0.00 0.00 0.00 80 1018.4
20260508102628 43 171 0.9 1.7 0.00 0.00 0.00 79 1018.4
20260508101648 44 266 0.9 2.6 0.00 0.00 0.00 75 1018.3
20260508100628 43 182 0.9 1.7 0.00 0.00 0.00 77 1018.2
20260508095628 43 0.0 0.0 0.00 0.00 0.00 77 1018.2
20260508094628 44 0.0 0.0 0.00 0.00 0.00 80 1018.2
20260508093628 44 0.0 0.0 0.00 0.00 0.00 75 1018.2
20260508092628 45 350 0.0 1.7 0.00 0.00 0.00 76 1018.1
20260508091628 46 0.0 0.0 0.00 0.00 0.00 73 1018.0